www.pogodaiklimat.ru

Погода и климат >> Архив погоды >> Норвегия >> Рорвик аэропорт


ПОГОДА в Рорвик аэропорту

  • Прогноз погоды в Рорвик аэропорту
  • Монитор погоды в Рорвик аэропорту

АРХИВ ПОГОДЫ в Рорвик аэропорту

Время (UTC), дата Ветер
(напр.,м/с)
 
Видим.   Явления Облачность Т
(С)
Тd
(С)
f
(%)
Тe
(С)
Тes
(С)
Комфортность P
(гПа)
Po
(гПа)
Тmin
(С)
Tmax
(С)
R
(мм)
R24
(мм)
S
(см)
19 10.06 СВ 3
{6}
н/о н/о +8.9 +6.2 83 +6 +6 1021.9 1021.4
20 10.06 С 3
{5}
н/о н/о +8.7 +5.6 81 +6 +6 1022.5 1021.9
21 10.06 С 3
{5}
н/о н/о +8.4 +5.5 82 +6 +6 1023.1 1022.5
22 10.06
{5}
н/о н/о +8.5 +4.9 78 1023.8 1023.2
23 10.06 С 3
{5}
н/о н/о +8.1 +5.4 83 +5 +5 1024.3 1023.7
00 11.06 С 3
{6}
н/о н/о +8.1 +4.5 78 +6 +6 1025.0 1024.5
01 11.06 С 4
{6}
н/о н/о +7.8 +4.4 79 +5 +5 1025.4 1024.8
02 11.06 С 4
{7}
н/о н/о +7.8 +4.0 77 +5 +5 1025.5 1024.9
03 11.06 С 3
{5}
н/о н/о +7.6 +3.5 75 +5 +5 1025.8 1025.2
04 11.06 С 3
{5}
н/о н/о +7.9 +3.6 74 +5 +5 1026.2 1025.6
05 11.06 С 4
{6}
н/о н/о +8.7 +3.1 68 +6 +6 1027.0 1026.4
06 11.06
{7}
н/о н/о +8.7 +2.9 67 1027.7 1027.1 +7.3 +9.2
07 11.06 С 3
{6}
н/о н/о +9.0 +1.7 60 +7 +7 1028.3 1027.7
08 11.06 С 3
{6}
н/о н/о +9.0 +2.1 62 +7 +7 1028.7 1028.2
09 11.06 СВ 3
{6}
н/о н/о +10.0 +2.6 60 +8 +8 1029.0 1028.5
10 11.06
{6}
н/о н/о +10.0 +3.1 62 1029.2 1028.6
11 11.06 С 4
{7}
н/о н/о +10.5 +3.3 61 +8 +8 1029.3 1028.7
12 11.06 С 5
{8}
н/о н/о +10.4 +2.0 56 +8 +8 1029.2 1028.7
13 11.06 С 6
{9}
н/о н/о +11.2 +3.5 59 +8 +8 1029.5 1028.9
14 11.06 С 6
{10}
н/о н/о +11.0 +3.8 61 +8 +8 1029.3 1028.8
15 11.06 С 6
{10}
н/о н/о +11.3 +4.1 61 +9 +9 1029.5 1029.0
16 11.06 С 7
{10}
н/о н/о +10.7 +4.2 64 +7 +7 1029.6 1029.1
17 11.06 С 8
{11}
н/о н/о +9.6 +3.4 65 +6 +6 1029.5 1029.0
18 11.06 С 7
{12}
н/о н/о +9.4 +4.2 70 +6 +6 1029.7 1029.1 +8.7 +11.9
19 11.06 С 7
{11}
н/о н/о +9.3 +4.7 73 +5 +5 1029.6 1029.1
20 11.06 С 6
{9}
н/о н/о +8.8 +5.2 78 +5 +5 1029.5 1028.9
21 11.06 С 5
{9}
н/о н/о +8.2 +5.5 83 +5 +5 1029.5 1028.9
22 11.06 СВ 4
{7}
н/о н/о +7.4 +5.4 87 +4 +4 1029.3 1028.7
23 11.06 СВ 3
{6}
н/о н/о +6.8 +4.8 87 +4 +4 1029.2 1028.6
00 12.06 СВ 3
{11}
н/о н/о +6.7 +5.8 94 +3 +3 1029.0 1028.4
01 12.06 СВ 3
{4}
н/о н/о +6.1 +5.8 98 +3 +3 1028.6 1028.1
02 12.06 СВ 3
{4}
н/о н/о +6.9 +6.6 98 +4 +4 1028.4 1027.9
03 12.06 СВ 3
{5}
н/о н/о +8.6 +7.4 92 +6 +6 1028.1 1027.5
04 12.06 СВ 3
{6}
н/о н/о +9.6 +7.6 87 +7 +7 1027.6 1027.0
05 12.06 СВ 4
{6}
н/о н/о +10.7 +6.8 77 +8 +8 1027.1 1026.5
06 12.06 СВ 4
{6}
н/о н/о +12.0 +7.1 72 +10 +10 1026.9 1026.3 +6.1 +12.1
07 12.06 СВ 4
{6}
н/о н/о +12.7 +7.2 69 +11 +11 1026.6 1026.1
08 12.06 СВ 4
{6}
н/о н/о +13.6 +8.0 69 +12 +12 1026.1 1025.5
09 12.06 СВ 5
{7}
н/о н/о +14.3 +8.1 66 +13 +13 1025.4 1024.9
10 12.06 СВ 5
{7}
н/о н/о +15.1 +8.1 63 +14 +14 1025.1 1024.6
11 12.06 СВ 6
{8}
н/о н/о +16.1 +8.6 61 +15 +15 1024.4 1023.9
12 12.06 СВ 6
{8}
н/о н/о +15.6 +8.4 62 +14 +14 1023.8 1023.2
13 12.06 СВ 5
{8}
н/о н/о +16.4 +9.4 63 +16 +16 1023.0 1022.4
14 12.06 СВ 5
{7}
н/о н/о +16.4 +8.6 60 +16 +16 1022.3 1021.7
15 12.06 СВ 5
{7}
н/о н/о +16.1 +9.3 64 +15 +15 1021.6 1021.1
16 12.06 СВ 4
{6}
н/о н/о +16.9 +9.6 62 +16 +16 1021.0 1020.5
17 12.06 В 2
{5}
н/о н/о +16.9 +8.3 57 +17 +17 1020.8 1020.3
18 12.06 ЮВ 5
{9}
н/о н/о +16.1 +3.6 43 +15 +15 1021.1 1020.5 +11.9 +18.2
19 12.06 ЮВ 4
{8}
н/о н/о +15.0 +4.4 49 +14 +14 1020.4 1019.9
20 12.06 ЮВ 4
{8}
н/о н/о +14.4 +1.7 42 +13 +13 1020.3 1019.8
21 12.06 В 4
{9}
н/о н/о +13.4 +2.9 49 +12 +12 1019.9 1019.3
22 12.06 В 3
{6}
н/о н/о +12.6 +3.6 54 +11 +11 1019.5 1018.9
23 12.06 В 4
{6}
н/о н/о +12.7 +3.1 52 +11 +11 1018.9 1018.3
00 13.06 В 4
{9}
н/о н/о +12.6 +3.0 52 +11 +11 1018.3 1017.7
01 13.06 В 3
{6}
н/о н/о +12.1 +3.6 56 +11 +11 1017.6 1017.0
02 13.06 В 4
{7}
н/о н/о +12.1 +3.1 54 +10 +10 1016.5 1015.9
03 13.06 В 5
{9}
н/о н/о +11.9 +3.4 56 +10 +10 1016.5 1016.0
04 13.06 В 6
{11}
н/о н/о +9.5 +6.2 80 +6 +6 1016.2 1015.7
05 13.06 В 5
{10}
н/о н/о +9.4 +7.2 86 +6 +6 1015.5 1014.9
06 13.06 В 5
{11}
н/о н/о +9.9 +7.5 85 +7 +7 1015.0 1014.4 +9.3 +16.1
07 13.06 В 6
{12}
н/о н/о +11.5 +7.4 76 +9 +9 1015.0 1014.5
08 13.06 В 5
{11}
н/о н/о +11.8 +7.3 74 +9 +9 1014.6 1014.0
09 13.06 В 5
{8}
н/о н/о +13.5 +7.1 65 +12 +12 1014.1 1013.5
10 13.06 В 6
{11}
н/о н/о +14.2 +6.6 60 +12 +12 1014.0 1013.4
11 13.06 В 7
{12}
н/о н/о +14.2 +6.8 61 +12 +12 1013.9 1013.4
12 13.06 В 6
{13}
н/о н/о +13.3 +9.0 75 +11 +11 1014.0 1013.4
13 13.06 В 9
{13}
н/о н/о +14.0 +8.6 70 +11 +11 1013.8 1013.3
14 13.06 В 8
{16}
н/о н/о +14.8 +8.7 67 +13 +13 1013.7 1013.1
15 13.06 В 8
{14}
н/о н/о +14.6 +9.0 69 +12 +12 1013.8 1013.3
16 13.06 В 8
{14}
н/о н/о +15.4 +8.4 63 +14 +14 1013.5 1012.9
17 13.06 В 7
{12}
н/о н/о +15.7 +8.9 64 +14 +14 1013.8 1013.2
18 13.06 В 5
{16}
н/о н/о +15.8 +9.0 64 +15 +15 1014.2 1013.6 +9.9 +16.4
19 13.06 В 5
{10}
н/о н/о +15.1 +8.6 65 +14 +14 1014.6 1014.0
20 13.06 В 5
{10}
н/о н/о +14.7 +8.4 66 +13 +13 1015.3 1014.8
21 13.06 В 4
{7}
н/о н/о +13.5 +8.6 72 +12 +12 1015.9 1015.3
22 13.06 В 5
{8}
н/о н/о +12.9 +8.4 74 +11 +11 1016.4 1015.8
23 13.06 В 4
{8}
н/о н/о +12.6 +8.1 74 +11 +11 1016.7 1016.1
00 14.06 ЮВ 4
{10}
н/о н/о +12.6 +8.1 74 +11 +11 1017.0 1016.4
01 14.06 В 3
{6}
н/о н/о +12.2 +8.1 76 +11 +11 1016.9 1016.3
02 14.06 В 4
{5}
н/о н/о +12.1 +8.2 77 +10 +10 1016.6 1016.1
03 14.06 В 3
{6}
н/о н/о +12.4 +8.5 77 +11 +11 1016.7 1016.1
04 14.06 В 3
{5}
н/о н/о +12.6 +8.9 78 +11 +11 1016.6 1016.1
05 14.06 В 2
{5}
н/о н/о +13.1 +8.8 75 +12 +12 1016.6 1016.1
06 14.06 В 3
{6}
н/о н/о +13.8 +9.1 73 +13 +13 1017.0 1016.4 +12.0 +15.8
07 14.06 В 2
{6}
н/о н/о +14.3 +9.3 72 +14 +14 1017.2 1016.7
08 14.06 В 3
{5}
н/о н/о +14.6 +9.4 71 +14 +14 1017.6 1017.1
09 14.06 В 3
{6}
н/о н/о +14.4 +9.8 74 +14 +14 1017.6 1017.1
10 14.06 В 3
{6}
н/о н/о +15.6 +9.9 69 +15 +15 1017.6 1017.1
11 14.06 В 4
{7}
н/о н/о +16.7 +10.1 65 +16 +16 1017.4 1016.8
12 14.06 В 3
{8}
н/о н/о +16.4 +10.3 67 +16 +16 1017.2 1016.7
13 14.06 В 3
{6}
н/о н/о +15.9 +10.2 69 +15 +15 1017.1 1016.5
14 14.06 В 3
{5}
н/о н/о +17.2 +11.0 67 +17 +17 1016.9 1016.4
15 14.06 В 4
{6}
н/о н/о +16.8 +10.9 68 +16 +16 1016.8 1016.3
16 14.06 СВ 3
{5}
н/о н/о +15.6 +11.2 75 +15 +15 1016.6 1016.0
17 14.06 В 3
{5}
н/о н/о +15.7 +11.5 76 +15 +15 1016.5 1016.0
18 14.06 В 3
{6}
н/о н/о +15.1 +11.5 79 +14 +14 1016.4 1015.8 +13.8 +17.6
19 14.06 В 2
{5}
н/о н/о +14.3 +11.6 84 +14 +14 1016.6 1016.0
20 14.06 В 3
{4}
н/о н/о +14.1 +11.6 85 +13 +13 1016.5 1016.0
21 14.06 В 3
{5}
н/о н/о +13.6 +11.5 87 +12 +12 1016.7 1016.1
22 14.06 СВ 2
{4}
н/о н/о +13.3 +11.5 89 +13 +13 1016.6 1016.1
23 14.06 СВ 4
{5}
н/о н/о +12.6 +12.0 96 +11 +11 1017.2 1016.6
00 15.06 В 1
{5}
н/о н/о +12.3 +12.2 99 +12 +12 1017.3 1016.7
01 15.06 СВ 2
{4}
н/о н/о +12.4 +12.4 100 +11 +11 1017.2 1016.6
02 15.06 В 1
{3}
н/о н/о +12.3 +12.3 100 +12 +12 1017.0 1016.5
03 15.06 СВ 2
{5}
н/о н/о +12.3 +12.3 100 +11 +11 1017.4 1016.8
04 15.06 В 1
{3}
н/о н/о +13.0 +13.0 100 +13 +13 1017.5 1016.9
05 15.06 штиль 0
{1}
н/о н/о +14.3 +13.5 95 +14 +14 1017.6 1017.1
06 15.06 ЮЗ 2
{5}
н/о н/о +13.7 +12.3 91 +13 +13 1018.1 1017.5 +12.2 +15.1
07 15.06 ЮЗ 3
{4}
н/о н/о +14.5 +12.4 87 +14 +14 1018.5 1018.0
08 15.06 ЮЗ 5
{6}
н/о н/о +14.3 +12.3 88 +13 +13 1019.0 1018.5
09 15.06 ЮЗ 3
{6}
н/о н/о +12.9 +12.1 95 +11 +11 1019.4 1018.8
10 15.06 ЮЗ 2
{4}
н/о н/о +13.8 +12.4 91 +13 +13 1019.6 1019.1
11 15.06 ЮЗ 3
{3}
н/о н/о +13.7 +12.3 91 +12 +12 1019.9 1019.3
12 15.06 ЮЗ 4
{6}
н/о н/о +15.8 +11.8 77 +15 +15 1019.7 1019.1
13 15.06 ЮЗ 4
{6}
н/о н/о +16.4 +11.4 72 +16 +16 1019.5 1019.0
14 15.06 Ю 4
{6}
н/о н/о +16.5 +12.5 77 +16 +16 1019.3 1018.7
15 15.06 СВ 3
{5}
н/о н/о +14.7 +10.9 78 +14 +14 1019.3 1018.7
16 15.06 С 3
{4}
н/о н/о +15.5 +10.5 72 +15 +15 1018.9 1018.3
17 15.06 С 3
{5}
н/о н/о +15.1 +10.1 72 +14 +14 1018.6 1018.0
18 15.06 С 3
{6}
н/о н/о +14.7 +9.9 73 +14 +14 1018.3 1017.7 +12.6 +18.1
19 15.06 СВ 4
{6}
н/о н/о +13.1 +9.4 78 +11 +11 1017.9 1017.4
20 15.06 С 4
{6}
н/о н/о +11.2 +9.8 91 +9 +9 1017.6 1017.1
21 15.06 С 3
{7}
н/о н/о +10.2 +9.9 98 +8 +8 1017.2 1016.7
22 15.06 С 3
{5}
н/о н/о +10.2 +10.2 100 +8 +8 1016.9 1016.4
23 15.06 С 4
{7}
н/о н/о +10.1 +10.1 100 +7 +7 1016.7 1016.2
00 16.06 С 4
{7}
н/о н/о +10.1 +10.1 100 +7 +7 1016.1 1015.6
01 16.06 В 1
{5}
н/о н/о +9.7 +9.7 100 +9 +9 1015.6 1015.0
02 16.06 СВ 2
{4}
н/о н/о +9.8 +9.8 100 +8 +8 1015.1 1014.6
03 16.06 СВ 2
{6}
н/о н/о +10.2 +10.2 100 +9 +9 1014.8 1014.2
04 16.06 СВ 3
{5}
н/о н/о +11.5 +11.5 100 +10 +10 1014.4 1013.8
05 16.06 СВ 3
{6}
н/о н/о +12.4 +11.6 95 +11 +11 1013.9 1013.4
06 16.06 СВ 5
{6}
н/о н/о +12.8 +10.9 88 +11 +11 1013.6 1013.0 +9.6 +14.8
07 16.06 СВ 6
{7}
н/о н/о +14.3 +11.5 83 +12 +12 1013.1 1012.6
08 16.06 С 6
{8}
н/о н/о +15.7 +11.9 78 +14 +14 1012.4 1011.8
09 16.06 СВ 6
{8}
н/о н/о +16.6 +12.0 74 +16 +16 1012.1 1011.6
10 16.06 СВ 7
{9}
н/о н/о +16.0 +11.2 73 +15 +15 1011.7 1011.2
11 16.06 СВ 6
{9}
н/о н/о +17.2 +12.1 72 +16 +16 1011.6 1011.0
12 16.06 СВ 6
{9}
н/о н/о +16.9 +11.8 72 +16 +16 1011.3 1010.7
13 16.06 С 7
{10}
н/о н/о +16.8 +11.7 72 +16 +16 1010.8 1010.3
14 16.06 СВ 8
{10}
н/о н/о +17.0 +11.3 69 +16 +16 1010.5 1010.0
15 16.06 СВ 8
{10}
н/о н/о +16.6 +11.5 72 +15 +15 1010.3 1009.8
16 16.06 СВ 7
{10}
н/о н/о +15.9 +10.9 72 +14 +14 1010.4 1009.8
17 16.06 СВ 4
{9}
н/о н/о +15.7 +11.1 74 +15 +15 1010.5 1010.0
18 16.06 С 4
{10}
н/о н/о +14.3 +10.7 79 +13 +13 1010.9 1010.4 +12.7 +18.0
19 16.06 С 4
{6}
н/о н/о +13.0 +10.2 83 +11 +11 1011.3 1010.8
20 16.06 С 2
{4}
н/о н/о +12.5 +10.1 85 +12 +12 1011.8 1011.3
21 16.06 С 2
{4}
н/о н/о +11.4 +10.2 92 +10 +10 1012.3 1011.8
22 16.06 З 1
{4}
н/о н/о +11.0 +10.2 95 +11 +11 1012.8 1012.2
23 16.06 З 1
{2}
н/о н/о +10.9 +10.6 98 +10 +10 1012.9 1012.3
00 17.06 Ю 1
{6}
н/о н/о +10.9 +10.9 100 +10 +10 1012.9 1012.4
01 17.06 ЮЗ 3
{4}
н/о н/о +11.5 +11.2 98 +10 +10 1013.0 1012.4
02 17.06 ЮЗ 4
{6}
н/о н/о +11.7 +11.2 97 +9 +9 1013.1 1012.5
03 17.06 ЮЗ 4
{5}
н/о н/о +11.7 +11.4 98 +9 +9 1012.9 1012.4
04 17.06 ЮЗ 5
{6}
н/о н/о +11.4 +11.4 100 +9 +9 1012.8 1012.3
05 17.06 З 4
{6}
н/о н/о +10.9 +10.9 100 +8 +8 1013.0 1012.4
06 17.06 З 4
{7}
н/о н/о +11.0 +11.0 100 +8 +8 1013.1 1012.6 +10.8 +14.4
07 17.06 З 4
{6}
н/о н/о +11.4 +11.4 100 +9 +9 1013.3 1012.7
08 17.06 З 5
{7}
н/о н/о +11.5 +11.5 100 +9 +9 1013.7 1013.1
09 17.06 З 4
{7}
н/о н/о +11.3 +11.3 100 +9 +9 1013.8 1013.2
10 17.06 З 5
{6}
н/о н/о +12.0 +10.7 92 +9 +9 1013.9 1013.3
11 17.06 ЮЗ 4
{7}
н/о н/о +11.7 +10.6 93 +9 +9 1014.0 1013.5
12 17.06 ЮЗ 5
{7}
н/о н/о +13.2 +10.9 86 +11 +11 1014.0 1013.5
13 17.06 ЮЗ 6
{7}
н/о н/о +13.0 +10.4 84 +11 +11 1013.9 1013.3
14 17.06 ЮЗ 5
{6}
н/о н/о +12.9 +9.7 81 +11 +11 1013.7 1013.1
15 17.06 ЮЗ 3
{5}
н/о н/о +13.6 +10.2 80 +12 +12 1013.3 1012.7
16 17.06 ЮЗ 2 н/о н/о +13.4 +9.5 77 +13 +13 1012.8 1012.3
17 17.06 ЮВ 1
{3}
н/о н/о +14.2 +7.0 62 +15 +15 1012.2 1011.7
18 17.06 В 1
{7}
н/о н/о +13.1 +8.8 75 +13 +13 1011.4 1010.9 +11.0 +14.7

 

Местоположение метеостанции Рорвик аэропорт (Норвегия): широта 64.83 долгота 11.14 высота над уровнем моря 4 м.

В архиве по умолчанию представлена погода в Рорвик аэропорту за последнюю неделю. Архивные данные за месяц целиком и за предыдущие месяцы, начиная с января 2011 года, Вы можете получить, выбрав интересующий диапазон дат из раскрывающегося списка и нажав кнопку "Ввод!".


*Определитесь, кто Вы:
робот инопланетянин человек

Внимание! Время в таблицах - всемирное. Для получения местного времени необходимо прибавить поправку, которая равна 1 ч.

Смотрите также архив погоды в соседних городах и на ближайших метеорологических станциях:

Погода на Маяке Nordoyan (Норвегия) (28 км)
Погода на Маяке Sklinna (Норвегия) (42 км)
Погода в Намсос аэропорту (Норвегия) (45 км)
Погода на Маяке Buholmrasa (Норвегия) (58 км)
Погода на Сомна-Квалёйа (Норвегия) (59 км)
Погода в Гартлэнде (Норвегия) (68 км)
Погода в Намсскугане (Норвегия) (82 км)
Погода в Брённёйсунн аэропорту (Норвегия) (86 км)
Погода в Стейнхьере (Норвегия) (91 км)
Погода в Снаса-Кжевя (Норвегия) (98 км)

Пояснения к столбцам:

Ветер - указаны скорость ветра в м/с - средняя за 10 мин, порывы в срок и между сроками (в фигурных скобках) и направление, откуда дует ветер: С - северный, СВ - северо-восточный, В - восточный, ЮВ - юго-восточный, Ю - южный, ЮЗ - юго-западный, З - западный, СЗ - северо-западный.
Видимость - горизонтальная дальность видимости в метрах или километрах. При видимости от 1 до 10 км при отсутствии осадков обычно наблюдается дымка, при ухудшении видимости до 1 км и менее - туман. В сухую погоду видимость может ухудшаться дымом, пылью или мглою.
Явления - указаны атмосферные явления, наблюдавшиеся в срок или в последний час перед сроком; фигурными скобками обозначены явления, наблюдавшиеся между сроками (за 1-3 часа до срока); квадратными скобками обозначены град или гололедные отложения с указанием их диаметра в мм.
Облачность - указаны через наклонную черту общая и нижняя облачность в баллах и высота нижней границы облаков в метрах; квадратными скобками обозначены формы облаков: Ci - перистые, Cs - перисто-слоистые, Cc - перисто-кучевые, Ac - высококучевые, As - высокослоистые, Sc - слоисто-кучевые, Ns - слоисто-дождевые, Cu - кучевые, Cb - кучево-дождевые. Подробнее классификацию облаков см. в Атласе облаков (PDF).
T - Температура воздуха - температура, измеренная на высоте 2 м над землей.
Td - Температура точки росы - температура, при понижении до которой содержащийся в воздухе водяной пар достигнет насыщения.
f - Относительная влажность воздуха - влажноcть воздуха, измеренная на высоте 2 м над землей.
Te - Эффективная температура - температура, которую ощущает одетый по сезону человек в тени. Характеристика душности погоды. При расчете учитывается влияние влажности воздуха и скорости ветра на теплоощущения человека.
Tes - Эффективная температура на солнце - температура, которую ощущает человек, с поправкой на солнечный нагрев. Характеристика знойности погоды. Зависит от высоты солнца над горизонтом, облачности и скорости ветра. Ночью, в пасмурную погоду, а также при ветре 12 м/с и более поправка равна нулю.
P - Атмосферное давление - приведенное к уровню моря атмосферное давление.
Po - Атмосферное давление - измеренное на уровне метеостанции атмосферное давление.
Tmin - Минимальная температура - минимум температуры воздуха на высоте 2 м над землей.
Tmax - Максимальная температура - максимум температуры воздуха на высоте 2 м над землей.
R - Количество осадков - Количество выпавших осадков за период времени, мм. При наведении курсора мыши на число - период времени, за который выпало указанное количество осадков.
R24 - Количество осадков - Количество выпавших осадков за 24 часа, мм.
S - Снежный покров - Высота снежного покрова, см. При наведении курсора мыши на число - состояние снежного покрова и степень покрытия местности в баллах.